[[{"header":{"parameterUnit":"m.s-1","parameterCategory":2,"la1":30.2991,"la2":30.254,"lo1":-89.0895,"lo2":-89.0444,"dy":0.0017,"dx":0.0017,"nx":28,"ny":28,"refTime":"2025-09-10T21:00:00:Z","depth":"0","parameterNumber":2,"parameterNumberName":"U-component_of_CURRENTS"},"data":[0,0,0,0,0,0,0,0,0,0,0,0,0,0,0,0,0,0,0,0,0,0,0,0,0,0,0,0,0,0,0,0,0,0,0,0,0,0,0,0,0,0,0,0,0,0,0,0,0,0,0,0,0,0,0,0,0,0,0.1673,0.1672,0,0.1596,0.1595,0.1595,0.1551,0.1551,0.155,0.155,0.1522,0.1522,0.1521,0,0,0,0,0,0,0,0,0,0,0,0,0,0.1833,0.183,0.1673,0.1672,0.1671,0.1596,0.1595,0.1594,0.1551,0.1551,0.155,0.155,0.1522,0.1522,0.1521,0,0,0,0,0,0,0,0,0,0,0,0,0,0.1762,0.1829,0.1673,0.1639,0.1635,0.1596,0.1595,0.1594,0.1551,0.1551,0.155,0.155,0.1523,0.1522,0.1521,0.1526,0,0,0.1519,0.1519,0,0,0,0,0,0,0,0,0.1766,0.1756,0.1645,0.1641,0.1637,0.1581,0.1641,0.1573,0.1551,0.1585,0.155,0.155,0.1546,0.1543,0.1531,0.1525,0.1524,0.1519,0.1519,0.1518,0.1518,0,0,0,0,0,0,0,0.1771,0.176,0.1644,0.1644,0.1639,0.1644,0.1634,0.1628,0.1571,0.1582,0.1578,0.1567,0.1544,0.1532,0.1531,0.1523,0.1519,0.1518,0.1518,0.1518,0.1508,0.1508,0,0,0,0,0,0,0.1774,0.1764,0.1647,0.1642,0.17,0.1642,0.163,0.1601,0.157,0.1564,0.1567,0.1565,0.1534,0.1531,0.1529,0.1522,0.1518,0.1518,0.1517,0.1508,0.1508,0.1508,0,0,0,0,0,0,0.1778,0.1764,0.165,0.1701,0.1687,0.1639,0.1607,0.16,0.1587,0.1558,0.1553,0.1562,0.1533,0.153,0.1523,0.1521,0.1517,0.1517,0.1508,0.1508,0.1508,0.1515,0,0,0,0,0,0,0.1782,0.1765,0.1753,0.1701,0.1684,0.1626,0.1607,0.1598,0.1579,0.1576,0.1552,0.1549,0.1533,0.1524,0.1522,0.152,0.1516,0.1507,0.1508,0.1508,0.1515,0.1516,0.1517,0,0,0,0,0,0.1788,0.1768,0.1753,0.1739,0.1665,0.1626,0.1618,0.1585,0.158,0.1573,0.1558,0.1549,0.1524,0.1524,0.1522,0.1519,0.1507,0.1508,0.1508,0.1515,0.1516,0.1517,0,0,0,0,0,0,0.1836,0.176,0.1742,0.1701,0.1668,0.1618,0.1609,0.159,0.1572,0.1573,0.1552,0.1547,0.1541,0.1533,0.1532,0.1518,0.1515,0.1514,0.152,0.1521,0.1522,0.1528,0.1516,0,0,0,0,0,0.184,0.1804,0.1743,0.1718,0.1699,0.1658,0.1642,0.1618,0.1591,0.1582,0.1564,0.1551,0.1541,0.1533,0.1523,0.1518,0.1515,0.1515,0.1516,0.1517,0.152,0.1511,0.1512,0.1509,0.1509,0.1509,0,0,0.1854,0.1809,0.179,0.1727,0.1699,0.167,0.1647,0.1621,0.1604,0.1585,0.1567,0.1556,0.1541,0.153,0.1526,0.1522,0.1518,0.1517,0.1518,0.1521,0.1512,0.1512,0.1512,0.1509,0.1509,0.1509,0,0,0.1863,0.1823,0.1795,0.1764,0.1717,0.1688,0.1682,0.1633,0.1619,0.1601,0.1584,0.1573,0.1554,0.1538,0.153,0.1533,0.1525,0.153,0.1534,0.1525,0.1526,0.1526,0.153,0.153,0.1527,0.1527,0.1527,0,0.1885,0.1831,0.1788,0.1756,0.1732,0.1697,0.1672,0.1653,0.1612,0.1603,0.1598,0.1568,0.1558,0.1541,0.1539,0.1535,0.1532,0.153,0.1526,0.1526,0.1526,0.153,0.1531,0.1527,0.1527,0.1527,0.1527,0,0.1865,0.1829,0.1816,0.1757,0.1733,0.1708,0.1669,0.1654,0.1639,0.1615,0.1599,0.1582,0.1563,0.1557,0.1549,0.154,0.154,0.1531,0.1523,0.1527,0.1531,0.1531,0.1528,0.1528,0.1528,0.1528,0,0,0.188,0.1813,0.1807,0.1784,0.1729,0.1705,0.1688,0.1652,0.1641,0.1617,0.16,0.1584,0.1575,0.1566,0.1552,0.1544,0.1544,0.1538,0.1537,0.1542,0.1534,0.156,0.1563,0.153,0.153,0.153,0.154,0,0.1874,0.1827,0.1792,0.1757,0.1725,0.1696,0.1682,0.1654,0.1635,0.1614,0.1599,0.1581,0.1578,0.1568,0.1561,0.1544,0.1544,0.1543,0.153,0.153,0.1553,0.1564,0.1609,0.1623,0.154,0.154,0.154,0,0.1845,0.182,0.1785,0.1744,0.173,0.1712,0.1681,0.1662,0.1634,0.1621,0.1604,0.1588,0.1573,0.157,0.1554,0.1553,0.155,0.1541,0.1541,0.1564,0.1557,0.1605,0.1627,0.1528,0.154,0.154,0.154,0,0.1851,0.1805,0.1783,0.1766,0.1722,0.1713,0.1694,0.1665,0.1647,0.1624,0.161,0.1592,0.1578,0.157,0.1557,0.1554,0.1542,0.1533,0.1559,0.1561,0.1597,0.1602,0.1523,0.1532,0.1532,0.1532,0.1532,0,0.183,0.1807,0.1788,0.177,0.1753,0.1722,0.17,0.1682,0.1654,0.1627,0.1615,0.1594,0.1576,0.1564,0.1559,0.1564,0.1546,0.1568,0.1565,0.1602,0.1608,0.1522,0.1388,0.1532,0.1532,0.1532,0.1532,0,0.1811,0.18,0.1773,0.1752,0.1746,0.1732,0.1698,0.1679,0.1661,0.1626,0.1619,0.1593,0.1583,0.1574,0.1558,0.1567,0.1503,0.1573,0.1626,0.163,0.1572,0.1436,0.1292,0.1265,0.1609,0.1609,0.161,0,0.1784,0.1772,0.1766,0.1757,0.1744,0.1724,0.1705,0.1682,0.1658,0.1621,0.1602,0.159,0.1575,0.1579,0.1603,0.1618,0.1503,0.1664,0.167,0.1579,0.1426,0.132,0.1301,0.1722,0.1724,0.1725,0.1726,0,0.1736,0.1749,0.174,0.1736,0.1722,0.1696,0.167,0.1658,0.1624,0.1605,0.1571,0.1563,0.1587,0.161,0.1646,0.1677,0.1555,0.169,0.1577,0.149,0.1386,0.1358,0.1704,0.1737,0.1736,0.1735,0.1734,0.1734,0.1707,0.1701,0.1706,0.1703,0.1687,0.1657,0.1625,0.1609,0.1578,0.1528,0.1545,0.1531,0.1597,0.1661,0.1659,0.1696,0.1595,0.1687,0.1528,0.1433,0.14,0.1777,0.1815,0.1814,0.1813,0.1813,0.1813,0,0.1661,0.1663,0.1662,0.1647,0.1619,0.1623,0.1584,0.1548,0.1509,0.1501,0.1478,0.1536,0.1587,0.1628,0.1699,0.1581,0.1527,0.1473,0.133,0.1321,0.1668,0.1671,0.1703,0.1703,0.1703,0.1703,0.1703,0.1704,0.1629,0.162,0.1633,0.1584,0.1568,0.1503,0.1476,0.1441,0.1426,0.14,0.1409,0.1431,0.1516,0.1445,0.1397,0.1356,0.1146,0.1056,0.0948,0.1172,0.1181,0.1189,0.1168,0.1094,0.1092,0.072,0.0715,0.0712]},{"header":{"parameterUnit":"m.s-1","parameterCategory":2,"la1":30.2991,"la2":30.254,"lo1":-89.0895,"lo2":-89.0444,"dy":0.0017,"dx":0.0017,"nx":28,"ny":28,"refTime":"2025-09-10T21:00:00:Z","depth":"0","parameterNumber":3,"parameterNumberName":"V-component_of_CURRENTS"},"data":[0,0,0,0,0,0,0,0,0,0,0,0,0,0,0,0,0,0,0,0,0,0,0,0,0,0,0,0,0,0,0,0,0,0,0,0,0,0,0,0,0,0,0,0,0,0,0,0,0,0,0,0,0,0,0,0,0,0,-0.0387,-0.0386,0,-0.0329,-0.0329,-0.0328,-0.028,-0.0279,-0.0279,-0.0278,-0.0224,-0.0223,-0.0222,0,0,0,0,0,0,0,0,0,0,0,0,0,-0.0504,-0.0502,-0.0387,-0.0386,-0.0385,-0.033,-0.0329,-0.0328,-0.028,-0.0279,-0.0279,-0.0278,-0.0224,-0.0223,-0.0222,0,0,0,0,0,0,0,0,0,0,0,0,0,-0.0451,-0.0501,-0.0387,-0.0354,-0.0351,-0.033,-0.0329,-0.0328,-0.028,-0.0279,-0.0278,-0.0278,-0.0225,-0.0223,-0.0222,-0.023,0,0,-0.0218,-0.0217,0,0,0,0,0,0,0,0,-0.0454,-0.0447,-0.036,-0.0357,-0.0353,-0.0311,-0.035,-0.0295,-0.028,-0.0307,-0.0278,-0.0277,-0.0254,-0.025,-0.0241,-0.0228,-0.0225,-0.0218,-0.0217,-0.0216,-0.0216,0,0,0,0,0,0,0,-0.0458,-0.0449,-0.0365,-0.0359,-0.0355,-0.0359,-0.035,-0.034,-0.0286,-0.0305,-0.0301,-0.0294,-0.0251,-0.0243,-0.024,-0.0225,-0.0218,-0.0216,-0.0215,-0.0215,-0.0206,-0.0207,0,0,0,0,0,0,-0.0462,-0.0452,-0.0366,-0.0363,-0.0402,-0.0358,-0.0348,-0.0325,-0.0286,-0.0279,-0.0295,-0.0292,-0.0246,-0.0241,-0.0238,-0.0242,-0.0216,-0.0215,-0.0214,-0.0205,-0.0206,-0.0207,0,0,0,0,0,0,-0.0464,-0.0454,-0.0369,-0.0407,-0.0396,-0.0356,-0.0332,-0.0325,-0.0316,-0.0279,-0.0272,-0.0294,-0.0245,-0.024,-0.0227,-0.0239,-0.0214,-0.0213,-0.0205,-0.0206,-0.0207,-0.0252,0,0,0,0,0,0,-0.0467,-0.0455,-0.0449,-0.0407,-0.0394,-0.0362,-0.0332,-0.0324,-0.0313,-0.0308,-0.0275,-0.0269,-0.0244,-0.023,-0.0226,-0.0237,-0.0212,-0.0204,-0.0205,-0.0206,-0.025,-0.0255,-0.0259,0,0,0,0,0,-0.0472,-0.0471,-0.0449,-0.0439,-0.0384,-0.0363,-0.0357,-0.0327,-0.0314,-0.0315,-0.0289,-0.027,-0.0234,-0.0229,-0.0225,-0.0235,-0.0203,-0.0205,-0.0206,-0.0248,-0.0254,-0.0258,0,0,0,0,0,0,-0.0536,-0.0464,-0.0439,-0.042,-0.0394,-0.0354,-0.0357,-0.0335,-0.0316,-0.0312,-0.0276,-0.0269,-0.0261,-0.0246,-0.0241,-0.0237,-0.0217,-0.0217,-0.025,-0.0255,-0.0259,-0.0267,-0.0211,0,0,0,0,0,-0.0542,-0.0514,-0.046,-0.0451,-0.0436,-0.0398,-0.0389,-0.0365,-0.0339,-0.0329,-0.0305,-0.0282,-0.0264,-0.0258,-0.0238,-0.0241,-0.0221,-0.0246,-0.025,-0.0254,-0.0257,-0.0241,-0.0244,-0.0211,-0.0211,-0.0211,0,0,-0.0569,-0.0527,-0.0514,-0.0462,-0.044,-0.0422,-0.0391,-0.0378,-0.037,-0.0328,-0.032,-0.0295,-0.0267,-0.0261,-0.0258,-0.0251,-0.0252,-0.0255,-0.0259,-0.026,-0.0243,-0.0246,-0.0248,-0.0212,-0.0212,-0.0212,0,0,-0.0607,-0.0567,-0.0552,-0.0524,-0.0484,-0.0456,-0.0454,-0.0412,-0.04,-0.0386,-0.0353,-0.0338,-0.0314,-0.0295,-0.0282,-0.0303,-0.0272,-0.0298,-0.033,-0.0314,-0.0317,-0.0319,-0.0294,-0.0294,-0.0305,-0.0305,-0.0305,0,-0.0648,-0.0604,-0.0554,-0.0534,-0.0516,-0.0473,-0.0463,-0.0448,-0.0411,-0.0404,-0.039,-0.035,-0.033,-0.0318,-0.0324,-0.0313,-0.0294,-0.0312,-0.032,-0.0321,-0.0322,-0.0297,-0.0296,-0.0307,-0.0307,-0.0307,-0.0306,0,-0.0659,-0.0631,-0.0628,-0.0573,-0.0556,-0.0545,-0.0504,-0.0495,-0.0473,-0.045,-0.0435,-0.0404,-0.0379,-0.0375,-0.0355,-0.0355,-0.0336,-0.0323,-0.0307,-0.0328,-0.03,-0.0298,-0.0311,-0.031,-0.0309,-0.0308,0,0,-0.0732,-0.0648,-0.0649,-0.0621,-0.057,-0.0555,-0.0549,-0.0522,-0.0513,-0.0492,-0.048,-0.046,-0.0438,-0.0424,-0.0398,-0.0391,-0.0383,-0.0366,-0.0365,-0.0343,-0.0341,-0.0303,-0.0297,-0.0371,-0.0371,-0.0371,-0.0317,0,-0.0757,-0.0719,-0.0675,-0.0657,-0.0629,-0.0589,-0.0583,-0.0558,-0.0535,-0.0515,-0.0493,-0.0469,-0.0458,-0.0441,-0.0436,-0.0386,-0.038,-0.0399,-0.0323,-0.032,-0.0285,-0.0294,-0.0209,-0.0151,-0.0314,-0.0314,-0.0314,0,-0.0772,-0.074,-0.0715,-0.0663,-0.0652,-0.0644,-0.0613,-0.0599,-0.0568,-0.055,-0.0531,-0.0499,-0.0479,-0.0466,-0.0417,-0.0427,-0.0395,-0.0364,-0.0361,-0.0309,-0.0279,-0.0156,-0.0141,-0.0035,-0.031,-0.031,-0.031,0,-0.0812,-0.0769,-0.0745,-0.0726,-0.0669,-0.0666,-0.0647,-0.0615,-0.0594,-0.0567,-0.0542,-0.052,-0.0485,-0.0458,-0.0396,-0.0405,-0.0332,-0.0333,-0.0273,-0.027,-0.0173,-0.0161,-0.0046,-0.0311,-0.0311,-0.0311,-0.0311,0,-0.0829,-0.0814,-0.0762,-0.0744,-0.073,-0.0691,-0.0676,-0.0654,-0.0617,-0.0582,-0.056,-0.0521,-0.048,-0.0428,-0.0395,-0.0318,-0.0331,-0.0278,-0.0255,-0.0187,-0.0177,-0.0062,-0.0074,-0.0309,-0.031,-0.031,-0.031,0,-0.0852,-0.0818,-0.0786,-0.0744,-0.0735,-0.0724,-0.0681,-0.0662,-0.0633,-0.0584,-0.0571,-0.0511,-0.0441,-0.0393,-0.0324,-0.0296,-0.019,-0.0212,-0.0131,-0.01,0.0038,0.0018,0.0047,0.0098,-0.0144,-0.0143,-0.0142,0,-0.0849,-0.0831,-0.0789,-0.077,-0.0749,-0.0728,-0.0706,-0.0673,-0.0643,-0.0568,-0.0538,-0.0463,-0.0392,-0.0281,-0.0213,-0.0141,-0.012,-0.003,-0.0044,0.0061,0.0056,-0.0002,0.0035,0.0071,0.0074,0.0076,0.0078,0,-0.084,-0.0826,-0.0797,-0.0763,-0.0741,-0.0708,-0.0676,-0.0654,-0.0601,-0.0552,-0.0467,-0.0406,-0.0289,-0.016,-0.0068,-0.002,0.0031,0.0015,0.0113,0.0218,0.0175,0.0232,0.002,0.0097,0.0095,0.0094,0.0093,0.0092,-0.0838,-0.0812,-0.0772,-0.0742,-0.0715,-0.0671,-0.0626,-0.0587,-0.0523,-0.0402,-0.0392,-0.0245,-0.0099,0.0046,0.0103,0.0292,0.0161,0.0349,0.0312,0.0243,0.0298,0.0124,0.0229,0.0228,0.0227,0.0226,0.0225,0,-0.0824,-0.0782,-0.0747,-0.0695,-0.0652,-0.0645,-0.0582,-0.0512,-0.0416,-0.0307,-0.0211,0.0015,0.0197,0.0338,0.0536,0.0608,0.0588,0.0637,0.0611,0.0632,0.0506,0.053,0.072,0.072,0.072,0.072,0.0719,0.0719,-0.0806,-0.0758,-0.0727,-0.0639,-0.06,-0.0505,-0.0454,-0.0356,-0.0256,-0.0048,0.0118,0.0223,0.046,0.0654,0.0879,0.0882,0.0911,0.085,0.084,0.0809,0.0781,0.0754,0.078,0.102,0.102,0.1025,0.1025,0.1025]}],[{"header":{"parameterUnit":"m.s-1","parameterCategory":2,"la1":30.2991,"la2":30.254,"lo1":-89.0895,"lo2":-89.0444,"dy":0.0017,"dx":0.0017,"nx":28,"ny":28,"refTime":"2025-09-10T21:00:00:Z","depth":"2","parameterNumber":2,"parameterNumberName":"U-component_of_CURRENTS"},"data":[0,0,0,0,0,0,0,0,0,0,0,0,0,0,0,0,0,0,0,0,0,0,0,0,0,0,0,0,0,0,0,0,0,0,0,0,0,0,0,0,0,0,0,0,0,0,0,0,0,0,0,0,0,0,0,0,0,0,0.0392,0.0392,0,0.0404,0.0405,0.0405,0.0425,0.0425,0.0425,0.0426,0.0467,0.0468,0.0468,0,0,0,0,0,0,0,0,0,0,0,0,0,0.0352,0.0353,0.0392,0.0392,0.0392,0.0404,0.0405,0.0405,0.0425,0.0425,0.0425,0.0426,0.0467,0.0468,0.0469,0,0,0,0,0,0,0,0,0,0,0,0,0,0.0367,0.0353,0.0392,0.0404,0.0405,0.0404,0.0405,0.0405,0.0424,0.0425,0.0426,0.0426,0.0466,0.0468,0.0469,0.0465,0,0,0.0472,0.0473,0,0,0,0,0,0,0,0,0.0366,0.0369,0.0402,0.0403,0.0404,0.0414,0.0406,0.0426,0.0424,0.0417,0.0426,0.0426,0.0451,0.0454,0.0454,0.0467,0.0468,0.0472,0.0473,0.0473,0.0474,0,0,0,0,0,0,0,0.0365,0.0368,0.0397,0.0402,0.0403,0.0397,0.04,0.0409,0.0431,0.0418,0.0419,0.042,0.0452,0.0453,0.0456,0.0469,0.0472,0.0473,0.0474,0.0474,0.0544,0.0545,0,0,0,0,0,0,0.0365,0.0367,0.0396,0.0397,0.0386,0.0397,0.0401,0.041,0.0431,0.0434,0.042,0.0421,0.0451,0.0454,0.0457,0.05,0.0473,0.0474,0.0475,0.0543,0.0544,0.0545,0,0,0,0,0,0,0.0364,0.0368,0.0396,0.0382,0.0385,0.0398,0.0408,0.041,0.0427,0.0432,0.0436,0.0436,0.0452,0.0456,0.0484,0.05,0.0475,0.0476,0.0541,0.0543,0.0545,0.0555,0,0,0,0,0,0,0.0363,0.0368,0.038,0.0382,0.0386,0.0407,0.0407,0.041,0.0426,0.0428,0.0447,0.0451,0.0452,0.0482,0.0485,0.0501,0.0477,0.054,0.0542,0.0544,0.0553,0.0557,0.056,0,0,0,0,0,0.0362,0.0375,0.038,0.0384,0.04,0.0407,0.0409,0.0419,0.0426,0.0436,0.0453,0.0451,0.0498,0.0484,0.0487,0.0503,0.0539,0.0541,0.0544,0.0551,0.0556,0.056,0,0,0,0,0,0,0.0366,0.0378,0.0384,0.0401,0.0409,0.0411,0.0421,0.0427,0.0447,0.0455,0.0462,0.0466,0.0498,0.0502,0.0486,0.0532,0.052,0.0523,0.0525,0.0529,0.0532,0.0537,0.0478,0,0,0,0,0,0.0371,0.0386,0.0392,0.0409,0.0413,0.042,0.0426,0.0434,0.0447,0.0457,0.047,0.0489,0.0508,0.052,0.0536,0.0557,0.0563,0.0573,0.0576,0.0579,0.0587,0.0606,0.0611,0.0554,0.0554,0.0554,0,0,0.0378,0.0387,0.0397,0.0411,0.0418,0.043,0.0426,0.0441,0.0457,0.0458,0.049,0.0502,0.0518,0.0544,0.0559,0.0551,0.0599,0.0582,0.0584,0.0591,0.0609,0.0614,0.0619,0.0556,0.0555,0.0555,0,0,0.0395,0.0407,0.0423,0.0431,0.0444,0.0446,0.0454,0.0466,0.0478,0.0504,0.0513,0.0539,0.0563,0.0578,0.0588,0.0622,0.0617,0.0627,0.0646,0.0663,0.0668,0.0672,0.0684,0.0689,0.0627,0.0627,0.0627,0,0.0408,0.0429,0.0429,0.0444,0.0456,0.0457,0.0477,0.0484,0.0506,0.0522,0.0521,0.0569,0.0581,0.0614,0.0627,0.063,0.0634,0.0624,0.0666,0.0671,0.0674,0.0686,0.0691,0.0628,0.0628,0.0628,0.0628,0,0.0431,0.0453,0.0463,0.0485,0.0493,0.0512,0.0518,0.0534,0.0548,0.0559,0.0597,0.061,0.0641,0.0646,0.0646,0.0682,0.0674,0.0667,0.0651,0.068,0.0691,0.0696,0.0629,0.0629,0.0628,0.0628,0,0,0.0461,0.0477,0.0487,0.0504,0.052,0.0531,0.0553,0.0577,0.0601,0.0618,0.0649,0.0679,0.0685,0.0698,0.0699,0.0712,0.0741,0.0701,0.0701,0.0704,0.0775,0.0817,0.0826,0.0734,0.0736,0.0736,0.077,0,0.0489,0.0524,0.0524,0.0564,0.0584,0.0587,0.0609,0.0628,0.0642,0.0667,0.0681,0.0709,0.0703,0.0717,0.0731,0.0733,0.0757,0.0733,0.0754,0.0755,0.0782,0.0835,0.0601,0.0615,0.0775,0.0776,0.0776,0,0.0524,0.0542,0.0584,0.0612,0.0621,0.0642,0.0677,0.0695,0.0717,0.0726,0.0748,0.0751,0.0774,0.0763,0.0791,0.0772,0.0786,0.0787,0.0788,0.0829,0.0808,0.0614,0.0619,0.0785,0.0784,0.0784,0.0783,0,0.0557,0.0591,0.0627,0.0638,0.0663,0.0686,0.0701,0.0724,0.074,0.0763,0.0773,0.0794,0.0807,0.0819,0.0819,0.0808,0.0842,0.0828,0.0883,0.0885,0.0694,0.0679,0.0871,0.0871,0.0871,0.0871,0.0871,0,0.0594,0.0627,0.0648,0.067,0.0715,0.0719,0.0761,0.0775,0.079,0.0808,0.0808,0.0819,0.0822,0.0832,0.0834,0.0876,0.0859,0.0907,0.0908,0.0694,0.0679,0.0831,0.0826,0.0872,0.0872,0.0872,0.0871,0,0.0627,0.0645,0.0687,0.0719,0.0734,0.0766,0.079,0.0807,0.0821,0.084,0.0846,0.0847,0.0864,0.0866,0.0884,0.0907,0.0929,0.0951,0.0705,0.0681,0.0957,0.0952,0.103,0.1032,0.1033,0.1035,0.1036,0,0.0644,0.067,0.072,0.0743,0.0761,0.0797,0.0816,0.083,0.0835,0.0852,0.0857,0.0881,0.0893,0.0936,0.0971,0.1007,0.0977,0.0801,0.0769,0.0986,0.0978,0.0971,0.0964,0.0498,0.0495,0.0492,0.049,0,0.0665,0.0689,0.0713,0.0763,0.0794,0.0817,0.0839,0.0844,0.0851,0.0857,0.0856,0.0871,0.0938,0.0857,0.0918,0.0904,0.0778,0.0758,0.1014,0.0531,0.0498,0.0487,0.0494,0.0466,0.0468,0.047,0.0471,0.0472,0.0673,0.069,0.0723,0.0772,0.0805,0.082,0.0823,0.0825,0.0826,0.0813,0.0833,0.0782,0.0755,0.0792,0.0771,0.0729,0.0838,0.0652,0.0653,0.0659,0.0628,0.0604,0.0585,0.0587,0.059,0.0592,0.0594,0,0.0665,0.0689,0.0724,0.0762,0.0777,0.0816,0.0822,0.0789,0.077,0.0753,0.0747,0.0544,0.0522,0.0493,0.043,0.0491,0.0453,0.0382,0.0217,0.0237,0.0257,0.0201,0.0047,0.0047,0.0047,0.0047,0,0,0.0657,0.0674,0.0692,0.0721,0.0755,0.0756,0.0758,0.0706,0.0661,0.0499,0.0411,0.0554,0.047,0.0292,0.0234,0.0102,0.0195,0.0093,0.0502,0.0324,0.0345,0.0352,0.0285,0,0,0,0,0]},{"header":{"parameterUnit":"m.s-1","parameterCategory":2,"la1":30.2991,"la2":30.254,"lo1":-89.0895,"lo2":-89.0444,"dy":0.0017,"dx":0.0017,"nx":28,"ny":28,"refTime":"2025-09-10T21:00:00:Z","depth":"2","parameterNumber":3,"parameterNumberName":"V-component_of_CURRENTS"},"data":[0,0,0,0,0,0,0,0,0,0,0,0,0,0,0,0,0,0,0,0,0,0,0,0,0,0,0,0,0,0,0,0,0,0,0,0,0,0,0,0,0,0,0,0,0,0,0,0,0,0,0,0,0,0,0,0,0,0,0.026,0.026,0,0.0295,0.0295,0.0295,0.0268,0.0267,0.0266,0.0264,0.0228,0.0228,0.0228,0,0,0,0,0,0,0,0,0,0,0,0,0,0.0178,0.018,0.026,0.0261,0.0261,0.0295,0.0295,0.0295,0.0268,0.0267,0.0265,0.0264,0.0228,0.0228,0.0228,0,0,0,0,0,0,0,0,0,0,0,0,0,0.0213,0.018,0.026,0.0252,0.0251,0.0295,0.0295,0.0296,0.0268,0.0267,0.0265,0.0263,0.0228,0.0228,0.0228,0.0264,0,0,0.0229,0.0229,0,0,0,0,0,0,0,0,0.0211,0.0216,0.0252,0.0252,0.0252,0.0275,0.0253,0.0282,0.0269,0.0262,0.0264,0.0262,0.0239,0.0238,0.0249,0.0262,0.0261,0.0229,0.0229,0.0229,0.0229,0,0,0,0,0,0,0,0.0209,0.0214,0.0273,0.0253,0.0253,0.0249,0.0252,0.0258,0.0258,0.0262,0.026,0.0265,0.0238,0.0249,0.0248,0.026,0.0229,0.0229,0.0229,0.0229,0.0246,0.0247,0,0,0,0,0,0,0.0207,0.0213,0.0272,0.0275,0.0227,0.0252,0.0255,0.0269,0.0259,0.0257,0.0266,0.0264,0.025,0.0248,0.0246,0.0234,0.0229,0.0229,0.0229,0.0246,0.0246,0.0247,0,0,0,0,0,0,0.0205,0.0212,0.0271,0.0243,0.0251,0.0255,0.0271,0.0271,0.0259,0.0264,0.0259,0.0252,0.0248,0.0246,0.024,0.0234,0.0229,0.0229,0.0246,0.0246,0.0247,0.0245,0,0,0,0,0,0,0.0203,0.0212,0.0212,0.0244,0.0252,0.0289,0.0273,0.0273,0.0266,0.0262,0.0251,0.0247,0.0247,0.024,0.0241,0.0234,0.0229,0.0245,0.0246,0.0246,0.0244,0.0245,0.0246,0,0,0,0,0,0.02,0.0213,0.0212,0.0219,0.0256,0.029,0.0294,0.029,0.0267,0.0271,0.0258,0.0246,0.0244,0.0241,0.0241,0.0235,0.0245,0.0246,0.0246,0.0244,0.0245,0.0246,0,0,0,0,0,0,0.0175,0.0213,0.0212,0.0234,0.0255,0.0285,0.0286,0.0282,0.0278,0.0261,0.0255,0.0252,0.0246,0.0245,0.0241,0.0243,0.0241,0.0242,0.0239,0.024,0.0241,0.0247,0.023,0,0,0,0,0,0.0172,0.0189,0.0224,0.0237,0.0248,0.0262,0.0269,0.0268,0.0275,0.0269,0.0261,0.0253,0.0257,0.0249,0.0255,0.0257,0.0261,0.0252,0.0253,0.0254,0.026,0.0278,0.0281,0.025,0.025,0.0249,0,0,0.0165,0.0187,0.0195,0.0232,0.0245,0.0272,0.0261,0.0271,0.0282,0.0267,0.0264,0.0257,0.026,0.0264,0.026,0.0255,0.0261,0.0255,0.0255,0.0261,0.028,0.0283,0.0285,0.025,0.025,0.025,0,0,0.0171,0.018,0.02,0.0222,0.0245,0.0261,0.0259,0.0279,0.0273,0.0279,0.027,0.0264,0.0261,0.027,0.0273,0.0284,0.0269,0.0271,0.0273,0.029,0.0293,0.0296,0.0286,0.0288,0.0265,0.0265,0.0265,0,0.0154,0.0195,0.0209,0.0237,0.0255,0.0255,0.0281,0.0287,0.0297,0.0297,0.0273,0.0278,0.0273,0.029,0.0285,0.0286,0.0279,0.0267,0.0291,0.0294,0.0297,0.0287,0.0289,0.0265,0.0265,0.0265,0.0265,0,0.0191,0.0212,0.0225,0.0264,0.0282,0.0303,0.0321,0.0322,0.0305,0.031,0.0307,0.0303,0.0301,0.0298,0.029,0.0304,0.0286,0.0294,0.0288,0.03,0.0288,0.029,0.0265,0.0265,0.0265,0.0265,0,0,0.0179,0.0239,0.024,0.0263,0.0297,0.0319,0.0334,0.0359,0.036,0.035,0.0354,0.0352,0.0327,0.0329,0.0315,0.0325,0.0326,0.0305,0.0306,0.0293,0.0337,0.0352,0.0355,0.033,0.0331,0.0331,0.0313,0,0.02,0.0258,0.0281,0.0323,0.0356,0.0364,0.0382,0.0394,0.0387,0.0389,0.0377,0.0365,0.0345,0.032,0.0333,0.0326,0.0334,0.0329,0.033,0.033,0.0341,0.036,0.0461,0.0457,0.0316,0.0316,0.0316,0,0.0232,0.0268,0.0314,0.0363,0.0375,0.0383,0.0405,0.0421,0.0425,0.0411,0.0397,0.038,0.0369,0.0355,0.0355,0.0344,0.034,0.0342,0.0342,0.0363,0.0351,0.0427,0.0466,0.032,0.0319,0.0319,0.0319,0,0.0235,0.0292,0.0325,0.0344,0.0394,0.0391,0.04,0.0411,0.0415,0.0401,0.0386,0.0386,0.0353,0.0367,0.0337,0.0343,0.0343,0.0358,0.0377,0.0376,0.0468,0.0475,0.0385,0.0385,0.0385,0.0385,0.0385,0,0.0267,0.029,0.0316,0.0338,0.0357,0.038,0.0381,0.0391,0.0389,0.0388,0.0372,0.0364,0.0352,0.0342,0.0344,0.035,0.0344,0.0384,0.0383,0.0468,0.0475,0.0366,0.0364,0.0384,0.0385,0.0385,0.0385,0,0.0274,0.0295,0.0334,0.0364,0.0359,0.0364,0.0357,0.0368,0.0349,0.0343,0.0326,0.0327,0.0306,0.03,0.031,0.0343,0.036,0.0366,0.0446,0.0456,0.038,0.0379,0.0407,0.0408,0.0409,0.0409,0.0409,0,0.0286,0.0307,0.0336,0.0341,0.0341,0.0336,0.0338,0.0336,0.0342,0.0324,0.033,0.0297,0.0314,0.0325,0.0385,0.0412,0.0343,0.0487,0.0542,0.0392,0.0388,0.0385,0.0383,0.065,0.0653,0.0655,0.0656,0,0.0314,0.0312,0.0355,0.0353,0.0346,0.0357,0.0347,0.0353,0.0349,0.0351,0.037,0.0382,0.0401,0.0505,0.0512,0.0526,0.0496,0.0527,0.0367,0.0626,0.062,0.0615,0.0606,0.0673,0.0671,0.067,0.0669,0.0668,0.0322,0.0355,0.0386,0.0391,0.0373,0.0376,0.0388,0.0393,0.0417,0.0439,0.0448,0.0534,0.0594,0.0721,0.0641,0.0585,0.0636,0.0652,0.0647,0.064,0.0669,0.0664,0.0729,0.0727,0.0726,0.0725,0.0724,0,0.0357,0.0382,0.0412,0.0431,0.0429,0.0375,0.0399,0.0446,0.0476,0.0531,0.0569,0.0749,0.0828,0.0792,0.0813,0.0789,0.0753,0.0682,0.0699,0.0691,0.0681,0.0708,0.0779,0.0777,0.0775,0.0773,0,0,0.038,0.0439,0.0477,0.0488,0.0447,0.0432,0.0435,0.0504,0.0582,0.0711,0.0814,0.0926,0.0981,0.0973,0.0909,0.0845,0.0723,0.0783,0.0783,0.0808,0.0794,0.0753,0.0798,0,0,0,0,0]}],[{"header":{"parameterUnit":"m.s-1","parameterCategory":2,"la1":30.2991,"la2":30.254,"lo1":-89.0895,"lo2":-89.0444,"dy":0.0017,"dx":0.0017,"nx":28,"ny":28,"refTime":"2025-09-10T21:00:00:Z","depth":"4","parameterNumber":2,"parameterNumberName":"U-component_of_CURRENTS"},"data":[0,0,0,0,0,0,0,0,0,0,0,0,0,0,0,0,0,0,0,0,0,0,0,0,0,0,0,0,0,0,0,0,0,0,0,0,0,0,0,0,0,0,0,0,0,0,0,0,0,0,0,0,0,0,0,0,0,0,-0.0396,-0.0396,0,-0.04,-0.04,-0.04,-0.0405,-0.0406,-0.0406,-0.0406,-0.0415,-0.0415,-0.0415,0,0,0,0,0,0,0,0,0,0,0,0,0,-0.037,-0.037,-0.0396,-0.0396,-0.0396,-0.04,-0.04,-0.04,-0.0405,-0.0406,-0.0406,-0.0406,-0.0415,-0.0415,-0.0415,0,0,0,0,0,0,0,0,0,0,0,0,0,-0.0378,-0.0371,-0.0396,-0.04,-0.04,-0.04,-0.04,-0.04,-0.0405,-0.0406,-0.0406,-0.0406,-0.0415,-0.0415,-0.0415,-0.0411,0,0,-0.0416,-0.0416,0,0,0,0,0,0,0,0,-0.0377,-0.0379,-0.0399,-0.0399,-0.04,-0.0403,-0.0394,-0.0404,-0.0405,-0.0403,-0.0406,-0.0406,-0.0412,-0.0412,-0.0411,-0.0412,-0.0412,-0.0416,-0.0416,-0.0416,-0.0416,0,0,0,0,0,0,0,-0.0377,-0.0378,-0.0397,-0.0399,-0.04,-0.0393,-0.0395,-0.0396,-0.0405,-0.0403,-0.0404,-0.0405,-0.0412,-0.0411,-0.0412,-0.0412,-0.0416,-0.0416,-0.0416,-0.0416,-0.0425,-0.0426,0,0,0,0,0,0,-0.0379,-0.0378,-0.0396,-0.0397,-0.039,-0.0394,-0.0396,-0.0401,-0.0405,-0.0406,-0.0405,-0.0405,-0.0411,-0.0411,-0.0412,-0.0421,-0.0416,-0.0416,-0.0416,-0.0425,-0.0426,-0.0426,0,0,0,0,0,0,-0.0378,-0.038,-0.0396,-0.0388,-0.0389,-0.0394,-0.04,-0.0401,-0.0406,-0.0407,-0.0408,-0.041,-0.0411,-0.0412,-0.0418,-0.0421,-0.0416,-0.0416,-0.0425,-0.0425,-0.0426,-0.043,0,0,0,0,0,0,-0.0377,-0.038,-0.0386,-0.0388,-0.039,-0.0399,-0.04,-0.0401,-0.0407,-0.0407,-0.0411,-0.0412,-0.0411,-0.0417,-0.0418,-0.0421,-0.0416,-0.0425,-0.0425,-0.0426,-0.0429,-0.043,-0.0431,0,0,0,0,0,-0.0377,-0.038,-0.0386,-0.0388,-0.0397,-0.0399,-0.0399,-0.0403,-0.0407,-0.0408,-0.0412,-0.0412,-0.042,-0.0418,-0.0418,-0.0421,-0.0425,-0.0425,-0.0426,-0.0429,-0.043,-0.0431,0,0,0,0,0,0,-0.037,-0.0382,-0.0388,-0.0395,-0.0399,-0.04,-0.0402,-0.0406,-0.041,-0.0412,-0.0414,-0.0415,-0.0422,-0.0421,-0.0418,-0.0425,-0.0422,-0.0423,-0.0425,-0.0426,-0.0426,-0.041,-0.0416,0,0,0,0,0,-0.0372,-0.038,-0.0388,-0.0394,-0.0397,-0.0401,-0.0403,-0.0406,-0.0409,-0.0412,-0.0416,-0.0419,-0.0423,-0.0424,-0.0427,-0.0429,-0.0424,-0.0431,-0.0432,-0.0432,-0.042,-0.0415,-0.0414,-0.0427,-0.0427,-0.0427,0,0,-0.0372,-0.0379,-0.0384,-0.0393,-0.0397,-0.0399,-0.0403,-0.0407,-0.0407,-0.0412,-0.0416,-0.0423,-0.0425,-0.0429,-0.0431,-0.0428,-0.043,-0.0433,-0.0433,-0.042,-0.0415,-0.0414,-0.0412,-0.0427,-0.0427,-0.0427,0,0,-0.0369,-0.0381,-0.0386,-0.039,-0.0397,-0.04,-0.0403,-0.0408,-0.041,-0.0415,-0.042,-0.0424,-0.0432,-0.043,-0.043,-0.0434,-0.0435,-0.0444,-0.0431,-0.0427,-0.0425,-0.0424,-0.0429,-0.0428,-0.0441,-0.0441,-0.0441,0,-0.0366,-0.0375,-0.0386,-0.0388,-0.039,-0.0401,-0.04,-0.0404,-0.0411,-0.0408,-0.0417,-0.0426,-0.0428,-0.0427,-0.0428,-0.0434,-0.0437,-0.0429,-0.0427,-0.0425,-0.0423,-0.0429,-0.0428,-0.0441,-0.0441,-0.0441,-0.0441,0,-0.0365,-0.0373,-0.0374,-0.0383,-0.0386,-0.0388,-0.0394,-0.0396,-0.0402,-0.0406,-0.0411,-0.0417,-0.0418,-0.0426,-0.0426,-0.0421,-0.043,-0.0431,-0.0423,-0.0422,-0.0429,-0.0428,-0.0442,-0.0442,-0.0442,-0.0442,0,0,-0.0353,-0.037,-0.037,-0.037,-0.0383,-0.038,-0.0382,-0.0382,-0.0378,-0.0392,-0.0391,-0.0396,-0.0402,-0.0402,-0.0411,-0.0406,-0.0403,-0.0412,-0.0412,-0.0415,-0.0403,-0.039,-0.0387,-0.0408,-0.0407,-0.0407,-0.0417,0,-0.0347,-0.0348,-0.0359,-0.0356,-0.0355,-0.0364,-0.0361,-0.0363,-0.037,-0.0374,-0.0383,-0.0385,-0.0394,-0.0394,-0.0394,-0.0408,-0.0398,-0.04,-0.0405,-0.0405,-0.039,-0.0384,-0.0405,-0.0416,-0.0416,-0.0416,-0.0416,0,-0.0339,-0.034,-0.0338,-0.0335,-0.0335,-0.0333,-0.0325,-0.0324,-0.0333,-0.0337,-0.0347,-0.0363,-0.0369,-0.0371,-0.0384,-0.039,-0.0385,-0.0392,-0.0393,-0.0372,-0.0388,-0.0414,-0.0413,-0.0413,-0.0413,-0.0414,-0.0414,0,-0.0318,-0.0321,-0.0316,-0.0318,-0.0321,-0.0312,-0.0306,-0.0309,-0.0298,-0.0311,-0.031,-0.0336,-0.0333,-0.0352,-0.037,-0.0376,-0.0383,-0.0394,-0.0374,-0.0375,-0.0383,-0.0384,-0.0373,-0.0373,-0.0373,-0.0373,-0.0373,0,-0.0304,-0.03,-0.0303,-0.0301,-0.0282,-0.0287,-0.0263,-0.0265,-0.0263,-0.0251,-0.0284,-0.029,-0.0322,-0.034,-0.0367,-0.0372,-0.0378,-0.0363,-0.0369,-0.0387,-0.0389,-0.0383,-0.0384,-0.0373,-0.0373,-0.0373,-0.0373,0,-0.0288,-0.0294,-0.0287,-0.0282,-0.0274,-0.0257,-0.0228,-0.0209,-0.0212,-0.0201,-0.0202,-0.0239,-0.0273,-0.031,-0.0336,-0.0345,-0.0368,-0.0356,-0.0378,-0.0387,-0.0367,-0.0369,-0.0348,-0.0348,-0.0347,-0.0347,-0.0346,0,-0.0281,-0.0279,-0.027,-0.0256,-0.0253,-0.0222,-0.0196,-0.0182,-0.0163,-0.0177,-0.0173,-0.02,-0.023,-0.0265,-0.0315,-0.0361,-0.035,-0.035,-0.0349,-0.0353,-0.0361,-0.0363,-0.0365,-0.0346,-0.0346,-0.0345,-0.0345,0,-0.0274,-0.0276,-0.0271,-0.0242,-0.0214,-0.0177,-0.0142,-0.012,-0.0108,-0.0111,-0.0127,-0.0162,-0.0194,-0.0254,-0.0269,-0.0309,-0.0358,-0.0346,-0.0347,-0.0345,-0.035,-0.0359,-0.0361,-0.0344,-0.0344,-0.0344,-0.0344,0,-0.027,-0.0264,-0.0258,-0.0229,-0.0192,-0.0149,-0.0126,-0.0095,-0.0072,-0.0078,-0.0091,-0.015,-0.0177,-0.0227,-0.0268,-0.0287,-0.0291,-0.028,-0.0285,-0.0287,-0.0268,-0.0265,-0.0228,0,0,0,0,0,-0.0262,-0.0256,-0.024,-0.0206,-0.0168,-0.015,-0.01,-0.0079,-0.0062,-0.0054,-0.0064,-0.0101,-0.0158,-0.0208,-0.0221,-0.0273,-0.0307,-0.0289,-0.0299,-0.0335,-0.0337,-0.0323,0,0,0,0,0,0,-0.026,-0.0248,-0.0244,-0.0195,-0.017,-0.0123,-0.0094,-0.0081,-0.007,-0.0066,-0.0098,-0.0101,-0.0167,-0.0156,-0.0227,-0.0238,-0.0241,-0.032,-0.032,-0.0334,-0.0335,-0.0337,-0.0324,0,0,0,0,0]},{"header":{"parameterUnit":"m.s-1","parameterCategory":2,"la1":30.2991,"la2":30.254,"lo1":-89.0895,"lo2":-89.0444,"dy":0.0017,"dx":0.0017,"nx":28,"ny":28,"refTime":"2025-09-10T21:00:00:Z","depth":"4","parameterNumber":3,"parameterNumberName":"V-component_of_CURRENTS"},"data":[0,0,0,0,0,0,0,0,0,0,0,0,0,0,0,0,0,0,0,0,0,0,0,0,0,0,0,0,0,0,0,0,0,0,0,0,0,0,0,0,0,0,0,0,0,0,0,0,0,0,0,0,0,0,0,0,0,0,0.0394,0.0395,0,0.0415,0.0416,0.0416,0.0428,0.0428,0.0428,0.0428,0.0441,0.0441,0.0441,0,0,0,0,0,0,0,0,0,0,0,0,0,0.0371,0.0371,0.0394,0.0395,0.0395,0.0415,0.0416,0.0416,0.0428,0.0428,0.0428,0.0429,0.0441,0.0441,0.0441,0,0,0,0,0,0,0,0,0,0,0,0,0,0.0385,0.0372,0.0394,0.0404,0.0405,0.0415,0.0416,0.0416,0.0428,0.0428,0.0428,0.0429,0.044,0.0441,0.0441,0.0441,0,0,0.0442,0.0442,0,0,0,0,0,0,0,0,0.0384,0.0386,0.0402,0.0403,0.0404,0.042,0.0412,0.0424,0.0428,0.0419,0.0428,0.0429,0.0433,0.0434,0.0437,0.0441,0.0442,0.0442,0.0442,0.0443,0.0443,0,0,0,0,0,0,0,0.0383,0.0385,0.0402,0.0402,0.0404,0.0409,0.0411,0.0414,0.0424,0.042,0.0421,0.0424,0.0433,0.0437,0.0438,0.0442,0.0442,0.0443,0.0443,0.0443,0.0475,0.0476,0,0,0,0,0,0,0.0381,0.0384,0.0402,0.0403,0.0395,0.041,0.0412,0.0414,0.0425,0.0427,0.0424,0.0424,0.0436,0.0437,0.0438,0.0469,0.0443,0.0443,0.0443,0.0475,0.0475,0.0476,0,0,0,0,0,0,0.0381,0.0383,0.0401,0.0394,0.0397,0.041,0.0413,0.0415,0.0426,0.0428,0.0429,0.0433,0.0436,0.0437,0.0446,0.0468,0.0443,0.0443,0.0474,0.0475,0.0476,0.0511,0,0,0,0,0,0,0.038,0.0382,0.0389,0.0394,0.0398,0.0409,0.0413,0.0415,0.0427,0.0428,0.0437,0.0437,0.0436,0.0445,0.0446,0.0468,0.0444,0.0473,0.0474,0.0475,0.0509,0.0513,0.0516,0,0,0,0,0,0.0379,0.0386,0.0389,0.0392,0.0404,0.0409,0.0411,0.0421,0.0428,0.0431,0.0438,0.0438,0.0454,0.0446,0.0447,0.047,0.0472,0.0474,0.0475,0.0507,0.0512,0.0516,0,0,0,0,0,0,0.0382,0.0388,0.0392,0.0402,0.0406,0.0411,0.0421,0.0425,0.0435,0.0438,0.0441,0.0442,0.0461,0.0457,0.0448,0.0482,0.0465,0.0467,0.0489,0.0494,0.0497,0.0488,0.0444,0,0,0,0,0,0.0385,0.0392,0.0396,0.0405,0.0408,0.0416,0.0422,0.0425,0.0432,0.0437,0.0444,0.0453,0.0466,0.0472,0.0478,0.0493,0.0497,0.0509,0.0513,0.0516,0.0509,0.0526,0.053,0.0481,0.0481,0.0481,0,0,0.039,0.0394,0.0399,0.0406,0.0413,0.0418,0.042,0.0429,0.0439,0.0436,0.0456,0.0465,0.0472,0.0492,0.05,0.0492,0.0539,0.0518,0.0521,0.0512,0.0528,0.0532,0.0537,0.0482,0.0482,0.0481,0,0,0.0398,0.0405,0.0413,0.0416,0.0424,0.0426,0.043,0.0438,0.0449,0.0465,0.0471,0.0493,0.0507,0.0521,0.053,0.0557,0.0558,0.0559,0.0572,0.0589,0.0593,0.0596,0.0636,0.0643,0.0562,0.0562,0.0562,0,0.0404,0.0414,0.0416,0.0422,0.043,0.043,0.044,0.0448,0.0459,0.0467,0.0476,0.0508,0.0525,0.0548,0.0564,0.0567,0.0575,0.0556,0.0594,0.0597,0.06,0.0639,0.0646,0.0564,0.0563,0.0563,0.0563,0,0.0413,0.0425,0.0431,0.0439,0.0445,0.0452,0.046,0.0469,0.0485,0.0492,0.0519,0.0541,0.0556,0.0577,0.0583,0.0613,0.0613,0.0597,0.0582,0.0607,0.0648,0.0654,0.0566,0.0566,0.0565,0.0565,0,0,0.0418,0.0435,0.0438,0.0448,0.0455,0.0461,0.0476,0.0488,0.0492,0.0518,0.0528,0.0579,0.0581,0.059,0.0602,0.0627,0.0682,0.0621,0.0621,0.0661,0.0731,0.0674,0.0676,0.0664,0.0665,0.0665,0.0761,0,0.0427,0.0448,0.0451,0.047,0.0483,0.0485,0.0495,0.0503,0.0512,0.0516,0.0547,0.0567,0.0587,0.0602,0.0625,0.0659,0.0695,0.0658,0.0699,0.0701,0.0647,0.068,0.0667,0.0766,0.0767,0.0768,0.0769,0,0.0435,0.045,0.0476,0.049,0.0494,0.0504,0.0513,0.052,0.052,0.0528,0.054,0.0547,0.0595,0.0602,0.0679,0.065,0.0694,0.0726,0.073,0.0662,0.0655,0.0728,0.0781,0.078,0.0779,0.0778,0.0777,0,0.0443,0.0465,0.049,0.0496,0.051,0.0524,0.053,0.053,0.0536,0.0536,0.0547,0.0564,0.0608,0.064,0.0728,0.0696,0.0812,0.0775,0.0772,0.077,0.0778,0.0772,0.083,0.083,0.083,0.083,0.0829,0,0.045,0.0469,0.05,0.0512,0.0537,0.0538,0.0551,0.0553,0.0547,0.0552,0.0558,0.0561,0.062,0.0686,0.0729,0.0785,0.0823,0.0779,0.0784,0.0795,0.079,0.0785,0.0778,0.0833,0.0833,0.0832,0.0831,0,0.0456,0.0474,0.0505,0.0532,0.0545,0.0564,0.058,0.0579,0.0582,0.0589,0.0599,0.0598,0.0668,0.075,0.083,0.081,0.0858,0.0878,0.0925,0.0931,0.0799,0.0794,0.0837,0.0836,0.0835,0.0834,0.0833,0,0.0461,0.0479,0.0528,0.0551,0.057,0.0596,0.0608,0.0605,0.0597,0.0601,0.0598,0.0663,0.0678,0.0752,0.0809,0.0898,0.0896,0.091,0.0804,0.0796,0.0798,0.0794,0.079,0.0831,0.0831,0.083,0.083,0,0.0468,0.0492,0.0519,0.0569,0.0597,0.0622,0.0635,0.0622,0.0613,0.0632,0.0587,0.0593,0.0669,0.0699,0.0816,0.0857,0.0873,0.0896,0.0897,0.0797,0.0789,0.0791,0.0788,0.0826,0.0827,0.0827,0.0827,0,0.0476,0.05,0.0538,0.058,0.0619,0.0631,0.0633,0.0614,0.0602,0.0588,0.0567,0.062,0.0651,0.068,0.0761,0.0825,0.0782,0.0728,0.0736,0.0742,0.0664,0.0637,0.0635,0,0,0,0,0,0.0481,0.0508,0.0544,0.0584,0.0622,0.065,0.0643,0.0631,0.0618,0.0582,0.0567,0.0619,0.0652,0.0647,0.07,0.0739,0.082,0.0792,0.0769,0.0804,0.0808,0.0725,0,0,0,0,0,0,0.0484,0.0523,0.0541,0.0582,0.0616,0.0649,0.0649,0.0637,0.0592,0.0578,0.0603,0.0591,0.0655,0.0669,0.0703,0.0716,0.0684,0.0825,0.0822,0.0801,0.0805,0.0809,0.0725,0,0,0,0,0]}]]